Hourly Weather Bartın

Today, 21 April, Wednesday

Time Temperature Precipitation Wind Pressure Humidity
00:00 +10°C° 0 mm 1 mps 761 mmHg 91%
01:00 +10°C° 0 mm 1 mps 761 mmHg 91%
02:00 +10°C° 0 mm 1 mps 761 mmHg 90%
03:00 +9°C° 0 mm 1 mps 761 mmHg 90%
04:00 +9°C° 0 mm 1 mps 761 mmHg 91%
05:00 +9°C° 0 mm 1 mps 762 mmHg 91%
06:00 +11°C° 0 mm 1 mps 762 mmHg 84%
07:00 +13°C° 0 mm 1 mps 762 mmHg 77%
08:00 +15°C° 0 mm 1 mps 762 mmHg 70%
09:00 +16°C° 0 mm 1 mps 762 mmHg 64%
10:00 +17°C° 0 mm 2 mps 762 mmHg 59%
11:00 +18°C° 0 mm 2 mps 762 mmHg 53%
12:00 +18°C° 0 mm 2 mps 762 mmHg 55%
13:00 +18°C° 0 mm 2 mps 762 mmHg 56%
14:00 +18°C° 0 mm 2 mps 762 mmHg 58%
15:00 +17°C° 0 mm 2 mps 762 mmHg 61%
16:00 +16°C° 0 mm 2 mps 762 mmHg 64%
17:00 +15°C° 0 mm 2 mps 762 mmHg 67%
18:00 +14°C° 0 mm 2 mps 763 mmHg 72%
19:00 +13°C° 0 mm 2 mps 763 mmHg 77%
20:00 +12°C° 0 mm 2 mps 763 mmHg 82%
21:00 +10°C° 0 mm 2 mps 763 mmHg 82%
22:00 +11°C° 0 mm 1 mps 763 mmHg 82%
23:00 +11°C° 0 mm 1 mps 763 mmHg 82%

Tomorrow, 22 April, Thursday

Time Temperature Precipitation Wind Pressure Humidity
00:00 +11°C° 0 mm 1 mps 763 mmHg 80%
01:00 +11°C° 0 mm 1 mps 764 mmHg 79%
02:00 +11°C° 0 mm 1 mps 764 mmHg 78%
03:00 +11°C° 0 mm 1 mps 764 mmHg 78%
04:00 +11°C° 0 mm 1 mps 764 mmHg 79%
05:00 +11°C° 0 mm 1 mps 765 mmHg 79%
06:00 +12°C° 0 mm 1 mps 765 mmHg 72%
07:00 +14°C° 0 mm 1 mps 765 mmHg 65%
08:00 +16°C° 0 mm 1 mps 765 mmHg 58%
09:00 +18°C° 0 mm 1 mps 765 mmHg 55%
10:00 +18°C° 0 mm 1 mps 765 mmHg 52%
11:00 +18°C° 0 mm 2 mps 765 mmHg 48%
12:00 +18°C° 0 mm 2 mps 765 mmHg 48%
13:00 +18°C° 0 mm 2 mps 765 mmHg 48%
14:00 +18°C° 0 mm 2 mps 765 mmHg 48%
15:00 +18°C° 0 mm 2 mps 765 mmHg 50%
16:00 +17°C° 0 mm 2 mps 765 mmHg 53%
17:00 +16°C° 0 mm 2 mps 765 mmHg 55%
18:00 +15°C° 0 mm 2 mps 765 mmHg 61%
19:00 +13°C° 0 mm 2 mps 765 mmHg 66%
20:00 +12°C° 0 mm 2 mps 766 mmHg 71%
21:00 +10°C° 0 mm 2 mps 765 mmHg 71%
22:00 +10°C° 0 mm 2 mps 765 mmHg 71%
23:00 +10°C° 0 mm 2 mps 765 mmHg 71%

Day after tomorrow, 23 April, Friday

Time Temperature Precipitation Wind Pressure Humidity
00:00 +10°C° 0 mm 2 mps 765 mmHg 71%
01:00 +10°C° 0 mm 2 mps 764 mmHg 71%
02:00 +9°C° 0 mm 2 mps 764 mmHg 71%
03:00 +9°C° 0 mm 2 mps 764 mmHg 71%
04:00 +9°C° 0 mm 2 mps 764 mmHg 72%
05:00 +9°C° 0 mm 2 mps 764 mmHg 72%
06:00 +13°C° 0 mm 2 mps 763 mmHg 66%
07:00 +15°C° 0 mm 2 mps 763 mmHg 60%
08:00 +18°C° 0 mm 1 mps 763 mmHg 54%
09:00 +20°C° 0 mm 1 mps 763 mmHg 49%
10:00 +22°C° 0 mm 1 mps 762 mmHg 44%
11:00 +24°C° 0 mm 1 mps 762 mmHg 38%
12:00 +23°C° 0 mm 2 mps 762 mmHg 41%
13:00 +23°C° 0 mm 2 mps 762 mmHg 43%
14:00 +23°C° 0 mm 2 mps 761 mmHg 46%
15:00 +20°C° 0 mm 2 mps 762 mmHg 49%
16:00 +20°C° 0 mm 1 mps 762 mmHg 53%
17:00 +19°C° 0 mm 1 mps 762 mmHg 57%
18:00 +18°C° 0 mm 1 mps 763 mmHg 59%
19:00 +16°C° 0 mm 1 mps 763 mmHg 60%
20:00 +15°C° 0 mm 1 mps 763 mmHg 61%
21:00 +15°C° 0 mm 1 mps 763 mmHg 59%
22:00 +15°C° 0 mm 1 mps 763 mmHg 58%
23:00 +15°C° 0 mm 1 mps 763 mmHg 56%

24 April, Saturday

Time Temperature Precipitation Wind Pressure Humidity
00:00 +15°C° 0 mm 1 mps 763 mmHg 58%
01:00 +14°C° 0 mm 1 mps 763 mmHg 59%
02:00 +14°C° 0 mm 1 mps 763 mmHg 60%
03:00 +13°C° 0 mm 1 mps 764 mmHg 63%
04:00 +13°C° 0 mm 1 mps 764 mmHg 65%
05:00 +12°C° 0 mm 1 mps 764 mmHg 67%
06:00 +14°C° 0 mm 1 mps 764 mmHg 64%
07:00 +15°C° 0 mm 1 mps 764 mmHg 60%
08:00 +18°C° 0 mm 1 mps 764 mmHg 57%
09:00 +18°C° 0 mm 2 mps 764 mmHg 56%
10:00 +18°C° 0 mm 2 mps 764 mmHg 56%
11:00 +19°C° 0 mm 2 mps 764 mmHg 56%
12:00 +18°C° 0 mm 3 mps 764 mmHg 61%
13:00 +18°C° 0 mm 3 mps 764 mmHg 65%
14:00 +17°C° 0 mm 3 mps 764 mmHg 70%
15:00 +16°C° 0 mm 3 mps 764 mmHg 75%
16:00 +16°C° 0 mm 3 mps 764 mmHg 81%
17:00 +14°C° 0 mm 3 mps 764 mmHg 86%
18:00 +13°C° 0.3 mm 3 mps 764 mmHg 90%
19:00 +13°C° 0.3 mm 3 mps 763 mmHg 93%
20:00 +12°C° 0.3 mm 3 mps 763 mmHg 96%
21:00 +12°C° 0.2 mm 3 mps 763 mmHg 96%
22:00 +12°C° 0.2 mm 3 mps 763 mmHg 97%
23:00 +12°C° 0.2 mm 3 mps 762 mmHg 97%

25 April, Sunday

Time Temperature Precipitation Wind Pressure Humidity
00:00 +12°C° 0.1 mm 4 mps 762 mmHg 97%
01:00 +12°C° 0.1 mm 4 mps 762 mmHg 97%
02:00 +10°C° 0.1 mm 5 mps 761 mmHg 97%
03:00 +10°C° 0.9 mm 5 mps 761 mmHg 97%
04:00 +9°C° 0.9 mm 5 mps 761 mmHg 97%
05:00 +9°C° 0.9 mm 5 mps 761 mmHg 96%
06:00 +9°C° 0.6 mm 5 mps 761 mmHg 96%
07:00 +8°C° 0.6 mm 4 mps 761 mmHg 96%
08:00 +8°C° 0.6 mm 4 mps 762 mmHg 96%
09:00 +10°C° 0.2 mm 4 mps 762 mmHg 95%
10:00 +10°C° 0.2 mm 3 mps 762 mmHg 94%
11:00 +10°C° 0.2 mm 3 mps 761 mmHg 93%
12:00 +10°C° 0.1 mm 3 mps 761 mmHg 93%
13:00 +10°C° 0.1 mm 3 mps 761 mmHg 94%
14:00 +10°C° 0.1 mm 3 mps 761 mmHg 94%
15:00 +10°C° 0.1 mm 3 mps 761 mmHg 95%
16:00 +10°C° 0.1 mm 3 mps 761 mmHg 95%
17:00 +10°C° 0.1 mm 2 mps 761 mmHg 95%
18:00 +10°C° 0 mm 2 mps 762 mmHg 95%
19:00 +10°C° 0 mm 2 mps 762 mmHg 95%
20:00 +9°C° 0 mm 2 mps 762 mmHg 96%
21:00 +9°C° 0 mm 2 mps 762 mmHg 96%
22:00 +9°C° 0 mm 2 mps 762 mmHg 96%
23:00 +9°C° 0 mm 2 mps 762 mmHg 97%

26 April, Monday

Time Temperature Precipitation Wind Pressure Humidity
00:00 +9°C° 0 mm 2 mps 762 mmHg 97%
01:00 +9°C° 0 mm 2 mps 762 mmHg 97%
02:00 +10°C° 0 mm 1 mps 762 mmHg 97%
03:00 +10°C° 0 mm 1 mps 762 mmHg 97%
04:00 +10°C° 0 mm 1 mps 762 mmHg 97%
05:00 +10°C° 0 mm 1 mps 762 mmHg 97%
06:00 +11°C° 0 mm 1 mps 762 mmHg 94%
07:00 +11°C° 0 mm 1 mps 762 mmHg 92%
08:00 +12°C° 0 mm 2 mps 762 mmHg 90%
09:00 +12°C° 0 mm 2 mps 763 mmHg 88%
10:00 +12°C° 0 mm 2 mps 763 mmHg 87%
11:00 +13°C° 0 mm 2 mps 763 mmHg 86%
12:00 +13°C° 0.1 mm 2 mps 763 mmHg 81%
13:00 +14°C° 0.1 mm 2 mps 762 mmHg 77%
14:00 +15°C° 0.1 mm 2 mps 762 mmHg 72%
15:00 +14°C° 0 mm 2 mps 762 mmHg 73%
16:00 +14°C° 0 mm 1 mps 762 mmHg 74%
17:00 +13°C° 0 mm 1 mps 762 mmHg 74%
18:00 +12°C° 0 mm 1 mps 763 mmHg 79%
19:00 +11°C° 0 mm 1 mps 763 mmHg 84%
20:00 +8°C° 0 mm 0 mps 764 mmHg 89%
21:00 +9°C° 0 mm 1 mps 764 mmHg 90%
22:00 +9°C° 0 mm 1 mps 764 mmHg 91%
23:00 +8°C° 0 mm 1 mps 764 mmHg 92%
Show more